User: anonymous   Login
Location: Unspecified
(0.0000°N, 0.0000°E)
Time: 03:22:14
(UTC+00:00)
Language:

AGILE - Orbit

View from above orbital plane
View from above orbital plane
View from above satellite
View from above satellite

Ground track
Ground track

The orbit data is extracted from the following two-line orbital elements,

1 31135U 07013A   15214.01924044  .00005390  00000-0  16425-3 0  9999
2 31135 002.4686 030.4414 0014195 165.9840 194.0608 15.25530272458726
Epoch (UTC): 02 August 2015 00:27:42
Eccentricity: 0.0014195
inclination: 2.4686°
perigee height: 479 km
apogee height: 499 km
right ascension of ascending node: 30.4414°
argument of perigee: 165.9840°
revolutions per day: 15.25530272
mean anomaly at epoch: 194.0608°
orbit number at epoch: 45872

The dashed part of the orbit path shows where the satellite is in the earth's shadow,  

DLR